Location: Pitton
(51.0667°N, 1.7000°W)
Time: 22:25:23
(UTC+00:00)

Cosmos 1626 - Pass Details

Date: 17 September 2019
Orbit: 493 x 495 km, 82.5° (Epoch: 20 October)

Event Time Altitude Azimuth Distance (km) Brightness Sun altitude
Rises 21:11:58 0° 351° (N) 2,591 6.5 -25.8°
Reaches altitude 10° 21:14:06 10° 353° (N) 1,704 5.4 -26.1°
Enters shadow 21:16:05 30° 359° (N) 921 3.8 -26.3°
